Simultaneous Nadir Overpasses (SNOs) Predictions

Prediction of SNOs between NOAA-19 and METOP-C Satellite Orbit:

Table of predicted SNOs for the next 14.0 days since TLE Epoch: 7/6/2024
Index Date (NOAA-19) Time (NOAA-19) Lat,Lon (NOAA-19) SZA (NOAA-19 ) Date (METOP-C) Time (METOP-C) Lat,Lon (METOP-C) SZA (METOP-C ) Distance(km) Time Diff (sec)
1 07/07/2024 17:06:47 78.90, -63.32 56.64 07/07/2024 17:07:49 78.90, -63.32 56.65 0.08 62
2 07/07/2024 17:57:41 -78.96, 104.41 123.28 07/07/2024 17:58:29 -78.97, 104.50 123.26 2.34 48
3 07/07/2024 18:48:39 79.09, -87.31 56.91 07/07/2024 18:49:05 79.10, -87.27 56.92 0.99 26
4 07/07/2024 19:39:33 -79.15, 80.44 123.01 07/07/2024 19:39:45 -79.17, 80.57 122.99 3.23 12
5 07/07/2024 20:30:32 79.25,-111.50 57.13 07/07/2024 20:30:22 79.26,-111.42 57.14 1.91 10
6 07/07/2024 21:21:24 -79.37, 56.79 122.70 07/07/2024 21:21:01 -79.36, 56.68 122.72 2.47 23
7 07/07/2024 22:12:25 79.41,-135.67 57.36 07/07/2024 22:11:39 79.42,-135.54 57.37 2.81 46
8 07/07/2024 23:03:18 -79.49, 32.38 122.51 07/07/2024 23:02:19 -79.48, 32.31 122.54 1.61 59
9 07/19/2024 13:45:58 -78.34, 163.47 122.28 07/19/2024 13:47:09 -78.35, 163.56 122.26 2.46 71
10 07/19/2024 14:36:57 78.50, -28.28 57.92 07/19/2024 14:37:44 78.51, -28.15 57.95 3.23 47
11 07/19/2024 15:27:45 -78.73, 140.54 121.79 07/19/2024 15:28:21 -78.71, 140.41 121.80 3.08 36
12 07/19/2024 16:18:45 78.85, -51.39 58.38 07/19/2024 16:18:57 78.83, -51.48 58.36 2.31 12
13 07/19/2024 17:09:37 -78.93, 116.50 121.52 07/19/2024 17:09:37 -78.92, 116.41 121.53 2.10 0
14 07/19/2024 18:00:37 79.04, -75.39 58.65 07/19/2024 18:00:13 79.04, -75.44 58.64 1.33 24
15 07/19/2024 18:51:29 -79.12, 92.51 121.24 07/19/2024 18:50:53 -79.12, 92.46 121.26 1.14 36
16 07/19/2024 19:42:29 79.24, -99.34 58.92 07/19/2024 19:41:29 79.24, -99.36 58.91 0.40 60



Historial Predications of SNOs between NOAA-19 and METOP-C
